Location: Góry Miechowskie
(50.3599°N, 20.1803°E)
Time: 22:52:43
(UTC+00:00)

Vanguard 3 - Pass Details

Date: 17 September 2024
Orbit: 507 x 3224 km, 33.4° (Epoch: 02 October)

Event Time Altitude Azimuth Distance (km) Brightness Sun altitude
Rises 03:22:17 0° 203° (SSW) 6,437 11.4 -9.6°
Reaches altitude 10° 03:27:26 10° 192° (SSW) 5,734 11.2 -8.9°
Maximum altitude 03:40:55 26° 145° (SE) 4,898 11.4 -6.8°
Drops below altitude 10° 03:54:44 10° 98° (E) 5,926 13.1 -4.6°
Sets 04:00:05 0° 88° (E) 6,692 14.6 -3.7°
